{"data":{"norad_id":56880,"epoch":"2026-05-25T00:20:13.532064Z","epoch_age_seconds":84090,"freshness":"FRESH","line1":"1 56880U 23083E   26145.01404551  .00000001  00000+0  97127-5 0  9992","line2":"2 56880  43.0042  14.1274 0000918 257.0560 103.0189 15.26741625163308","mean_motion":15.26741625,"eccentricity":9.18e-5,"inclination_deg":43.0042,"raan_deg":14.1274,"arg_perigee_deg":257.056,"mean_anomaly_deg":103.0189,"bstar":9.7127e-6,"rev_number":16330,"period_min":94.31851312759,"perigee_km":484.9305536519,"apogee_km":486.1907285388,"semimajor_km":6863.6976410954,"source":"CELESTRAK","updated_at":"2026-05-25T13:38:18.167247Z"}}